period_start,C,m1,H,J0,J1,J2,J3,J4,J5,JA,JB,JC,JD,JJ,JK,JN,#
2017-03-06 00:01:29,0.23,5.02,0.00,24.04,26.55,30.09,14.65,50.94,1031.96,2029.97,2017.02,2009.86,2273.93,600.00,602.91,27.58,0000 0000 0000 0000 000000
2017-03-06 00:06:31,0.18,5.03,0.00,24.01,26.55,30.10,14.71,51.01,1031.85,2029.93,2014.90,2008.39,2272.22,600.09,603.06,27.63,0000 0000 0000 0000 000000
2017-03-06 00:11:32,0.21,5.03,0.00,24.02,26.55,30.10,14.75,50.95,1031.77,2029.79,2012.67,2006.77,2270.35,600.33,603.14,27.68,0000 0000 0000 0000 000000
2017-03-06 00:16:33,0.19,5.05,0.00,24.04,26.55,30.10,14.62,50.88,1031.77,2029.73,2010.38,2005.17,2268.51,599.70,602.50,27.73,0000 0000 0000 0000 000000
2017-03-06 00:21:34,0.21,5.06,0.00,24.04,26.55,30.10,14.65,50.84,1031.76,2029.72,2008.29,2003.61,2266.74,600.01,602.82,27.78,0000 0000 0000 0000 000000
2017-03-06 00:26:35,0.18,5.07,0.00,24.06,26.55,30.09,14.65,50.99,1031.77,2029.68,2006.20,2002.14,2265.00,599.27,602.00,27.83,0000 0000 0000 0000 000000
2017-03-06 00:31:37,0.22,5.08,0.00,24.06,26.55,30.08,14.59,50.74,1031.76,2029.74,2003.99,2000.65,2263.38,600.23,603.02,27.88,0000 0000 0000 0000 000000
2017-03-06 00:36:38,0.20,5.09,0.00,24.07,26.54,30.08,14.64,50.89,1031.70,2029.80,2001.86,1999.24,2261.61,600.03,602.67,27.93,0000 0000 0000 0000 000000
2017-03-06 00:41:39,0.21,5.10,0.00,24.08,26.53,30.06,14.66,50.86,1031.38,2029.78,1999.72,1997.65,2259.85,599.99,602.49,27.98,0000 0000 0000 0000 000000
2017-03-06 00:46:40,0.20,5.11,0.00,24.07,26.52,30.06,14.71,51.04,1031.27,2029.84,1997.48,1996.13,2258.11,600.64,603.18,28.03,0000 0000 0000 0000 000000
2017-03-06 00:51:42,0.24,5.12,0.00,24.08,26.52,30.05,14.63,50.80,1031.27,2029.90,1995.15,1994.49,2256.24,599.88,602.35,28.08,0000 0000 0000 0000 000000
2017-03-06 00:56:43,0.24,5.13,0.00,24.09,26.52,30.06,14.63,50.92,1031.26,2029.97,1992.80,1992.75,2254.29,599.80,602.20,28.13,0000 0000 0000 0000 000000
2017-03-06 01:01:45,0.21,5.15,0.00,24.13,26.51,30.01,14.68,51.10,1031.17,2029.96,1990.44,1991.14,2252.38,599.70,601.84,28.18,0000 0000 0000 0000 000000
2017-03-06 01:06:46,0.23,5.15,0.00,24.09,26.51,30.02,14.68,51.08,1030.90,2029.96,1988.13,1989.51,2250.54,599.69,602.04,28.23,0000 0000 0000 0000 000000
2017-03-06 01:11:47,0.26,5.17,0.00,24.12,26.51,30.02,14.62,51.17,1030.79,2029.97,1985.61,1987.60,2248.38,599.89,601.92,28.28,0000 0000 0000 0000 000000
2017-03-06 01:16:49,0.24,5.18,0.00,24.14,26.52,30.03,14.80,51.23,1030.78,2029.96,1983.24,1985.73,2246.22,600.57,602.54,28.33,0000 0000 0000 0000 000000
2017-03-06 01:21:50,0.22,5.19,0.00,24.14,26.52,30.03,14.60,51.10,1030.78,2029.95,1980.86,1984.01,2244.22,599.91,601.95,28.38,0000 0000 0000 0000 000000
2017-03-06 01:26:51,0.30,5.21,0.00,24.14,26.52,30.03,14.65,51.33,1030.68,2029.96,1978.01,1981.98,2241.83,600.28,602.13,28.43,0000 0000 0000 0000 000000
2017-03-06 01:31:52,0.25,5.22,0.00,24.17,26.52,30.04,14.68,51.31,1030.35,2029.96,1975.33,1979.95,2239.50,599.84,601.59,28.48,0000 0000 0000 0000 000000
2017-03-06 01:36:54,0.30,5.24,0.00,24.16,26.53,30.04,14.67,51.32,1030.29,2029.96,1972.57,1977.89,2237.24,600.12,601.80,28.53,0000 0000 0000 0000 000000
2017-03-06 01:41:55,0.28,5.25,0.00,24.21,26.54,30.04,14.57,51.35,1030.29,2029.95,1969.70,1975.70,2234.71,599.40,601.05,28.58,0000 0000 0000 0000 000000
2017-03-06 01:46:56,0.29,5.27,0.00,24.18,26.55,30.04,14.61,51.28,1030.29,2029.93,1966.86,1973.48,2232.15,600.03,601.78,28.63,0000 0000 0000 0000 000000
2017-03-06 01:51:57,0.26,5.28,0.00,24.19,26.55,30.05,14.66,51.23,1030.30,2029.87,1964.25,1971.60,2229.91,599.87,601.49,28.68,0000 0000 0000 0000 000000
2017-03-06 01:56:58,0.25,5.29,0.00,24.20,26.55,30.06,14.62,51.36,1030.34,2029.89,1961.67,1969.71,2227.77,599.76,601.54,28.73,0000 0000 0000 0000 000000
2017-03-06 02:01:59,0.25,5.30,0.00,24.17,26.55,30.06,14.66,51.38,1030.42,2029.87,1959.30,1967.90,2225.68,600.31,602.10,28.78,0000 0000 0000 0000 000000
2017-03-06 02:07:01,0.22,5.32,0.00,24.19,26.57,30.05,14.54,51.03,1030.61,2029.86,1956.99,1966.19,2223.70,599.21,600.97,28.84,0000 0000 0000 0000 000000
2017-03-06 02:12:02,0.25,5.33,0.00,24.20,26.57,30.05,14.62,51.32,1030.49,2029.88,1954.54,1964.46,2221.69,599.77,601.41,28.89,0000 0000 0000 0000 000000
2017-03-06 02:17:03,0.22,5.34,0.00,24.16,26.57,30.05,14.64,51.38,1030.31,2029.86,1952.25,1962.77,2219.74,600.29,601.99,28.94,0000 0000 0000 0000 000000
2017-03-06 02:22:04,0.22,5.35,0.00,24.19,26.57,30.06,14.59,51.23,1030.30,2029.74,1949.91,1961.12,2217.86,599.75,601.43,28.99,0000 0000 0000 0000 000000
2017-03-06 02:27:06,0.22,5.36,0.00,24.21,26.57,30.07,14.66,51.19,1030.32,2029.71,1947.69,1959.55,2216.01,600.84,602.54,29.04,0000 0000 0000 0000 000000
2017-03-06 02:32:07,0.21,5.37,0.00,24.23,26.57,30.08,14.73,51.28,1030.43,2029.59,1945.42,1957.83,2214.10,600.23,601.94,29.09,0000 0000 0000 0000 000000
2017-03-06 02:37:08,0.20,5.38,0.00,24.21,26.57,30.08,14.63,51.23,1030.31,2029.49,1943.19,1956.28,2212.28,599.96,601.49,29.14,0000 0000 0000 0000 000000
2017-03-06 02:42:09,0.23,5.40,0.00,24.18,26.57,30.07,14.71,51.23,1030.29,2029.58,1940.90,1954.64,2210.45,600.52,602.17,29.19,0000 0000 0000 0000 000000
2017-03-06 02:47:11,0.28,5.41,0.00,24.18,26.57,30.07,14.63,51.39,1030.24,2029.52,1938.36,1952.80,2208.26,599.95,601.57,29.24,0000 0000 0000 0000 000000
2017-03-06 02:52:12,0.25,5.42,0.00,24.21,26.57,30.07,14.62,51.43,1030.03,2029.66,1935.94,1951.03,2206.28,599.84,601.30,29.29,0000 0000 0000 0000 000000
2017-03-06 02:57:13,0.25,5.43,0.00,24.20,26.57,30.07,14.67,51.38,1029.85,2029.70,1933.50,1949.28,2204.26,599.81,601.14,29.34,0000 0000 0000 0000 000000
2017-03-06 03:02:15,0.24,5.45,0.00,24.20,26.57,30.07,14.59,51.55,1029.79,2029.63,1930.95,1947.46,2202.20,599.46,600.77,29.39,0000 0000 0000 0000 000000
2017-03-06 03:07:16,0.28,5.46,0.00,24.21,26.57,30.06,14.65,51.79,1029.35,2029.71,1928.40,1945.69,2200.19,600.11,601.10,29.44,0000 0000 0000 0000 000000
2017-03-06 03:12:17,0.22,5.47,0.00,24.21,26.57,30.06,14.61,51.64,1029.32,2029.64,1925.94,1943.93,2198.15,600.16,601.24,29.49,0000 0000 0000 0000 000000
2017-03-06 03:17:18,0.27,5.49,0.00,24.21,26.57,30.05,14.64,51.71,1029.31,2029.58,1923.36,1942.02,2196.03,600.26,601.28,29.54,0000 0000 0000 0000 000000
2017-03-06 03:22:20,0.30,5.50,0.00,24.16,26.56,30.05,14.68,51.80,1029.37,2029.79,1920.75,1940.12,2193.83,600.21,601.32,29.59,0000 0000 0000 0000 000000
2017-03-06 03:27:21,0.26,5.51,0.00,24.16,26.55,30.01,14.69,51.68,1029.76,2029.69,1918.11,1938.03,2191.44,600.26,601.78,29.64,0000 0000 0000 0000 000000
2017-03-06 03:32:22,0.24,5.53,0.00,24.15,26.55,30.04,14.58,51.57,1029.80,2029.81,1915.64,1936.29,2189.43,599.63,601.13,29.69,0000 0000 0000 0000 000000
2017-03-06 03:37:24,0.28,5.54,0.00,24.17,26.55,30.06,14.62,51.55,1029.81,2029.76,1913.00,1934.45,2187.27,599.89,601.29,29.74,0000 0000 0000 0000 000000
2017-03-06 03:42:25,0.26,5.55,0.00,24.17,26.55,30.06,14.70,51.52,1029.78,2029.73,1910.41,1932.64,2185.22,600.17,601.56,29.79,0000 0000 0000 0000 000000
2017-03-06 03:47:26,0.26,5.57,0.00,24.19,26.55,30.07,14.62,51.77,1029.41,2029.73,1907.92,1930.92,2183.23,599.76,600.98,29.84,0000 0000 0000 0000 000000
2017-03-06 03:52:27,0.28,5.58,0.00,24.18,26.55,30.06,14.65,51.55,1029.31,2029.88,1905.34,1928.93,2180.97,600.15,601.22,29.89,0000 0000 0000 0000 000000
2017-03-06 03:57:29,0.24,5.59,0.00,24.13,26.55,30.07,14.64,51.58,1029.28,2029.92,1903.02,1927.20,2178.97,600.16,601.29,29.94,0000 0000 0000 0000 000000
2017-03-06 04:02:30,0.24,5.61,0.00,24.12,26.56,30.07,14.64,51.45,1029.31,2029.89,1900.57,1925.48,2177.08,600.23,601.53,29.99,0000 0000 0000 0000 000000
2017-03-06 04:07:31,0.23,5.62,0.00,24.13,26.57,30.08,14.64,51.24,1029.52,2029.85,1898.23,1923.87,2175.20,599.56,600.76,30.04,0000 0000 0000 0000 000000
2017-03-06 04:12:32,0.24,5.63,0.00,24.16,26.57,30.08,14.63,51.72,1029.76,2029.89,1895.92,1922.25,2173.39,600.39,601.73,30.09,0000 0000 0000 0000 000000
2017-03-06 04:17:33,0.22,5.64,0.00,24.19,26.57,30.08,14.62,51.73,1029.79,2029.86,1893.74,1920.65,2171.62,599.97,601.42,30.14,0000 0000 0000 0000 000000
2017-03-06 04:22:35,0.27,5.66,0.00,24.14,26.57,30.08,14.64,51.68,1029.51,2029.75,1891.23,1918.73,2169.39,600.19,601.53,30.19,0000 0000 0000 0000 000000
2017-03-06 04:27:36,0.21,5.67,0.00,24.14,26.58,30.09,14.60,51.39,1029.17,2029.54,1888.81,1917.03,2167.38,600.06,601.25,30.24,0000 0000 0000 0000 000000
2017-03-06 04:32:37,0.24,5.68,0.00,24.14,26.59,30.09,14.69,51.47,1028.84,2029.41,1886.45,1915.44,2165.49,600.24,601.06,30.29,0000 0000 0000 0000 000000
2017-03-06 04:37:38,0.26,5.69,0.00,24.14,26.60,30.08,14.70,51.29,1028.83,2029.42,1883.93,1913.62,2163.48,600.01,600.84,30.34,0000 0000 0000 0000 000000
2017-03-06 04:42:39,0.22,5.70,0.00,24.17,26.60,30.09,14.57,51.38,1028.85,2029.26,1881.46,1911.94,2161.51,599.97,600.80,30.39,0000 0000 0000 0000 000000
2017-03-06 04:47:41,0.25,5.72,0.00,24.15,26.60,30.09,14.54,51.05,1028.84,2029.22,1879.07,1910.25,2159.57,599.75,600.54,30.44,0000 0000 0000 0000 000000
2017-03-06 04:52:42,0.27,5.73,0.00,24.14,26.60,30.09,14.64,51.05,1028.84,2029.24,1876.47,1908.49,2157.54,599.68,600.47,30.49,0000 0000 0000 0000 000000
2017-03-06 04:57:43,0.27,5.74,0.00,24.13,26.61,30.09,14.62,51.38,1028.83,2029.19,1873.98,1906.71,2155.52,600.26,601.17,30.54,0000 0000 0000 0000 000000
2017-03-06 05:02:44,0.28,5.76,0.00,24.14,26.62,30.10,14.61,51.38,1028.82,2029.14,1871.25,1904.76,2153.27,600.22,601.09,30.59,0000 0000 0000 0000 000000
2017-03-06 05:07:45,0.24,5.77,0.00,24.16,26.62,30.10,14.58,51.27,1028.63,2029.10,1868.81,1903.01,2151.31,600.11,600.90,30.64,0000 0000 0000 0000 000000
2017-03-06 05:12:47,0.25,5.78,0.00,24.17,26.62,30.09,14.54,51.37,1028.31,2029.07,1866.48,1901.31,2149.27,599.72,600.18,30.69,0000 0000 0000 0000 000000
2017-03-06 05:17:48,0.26,5.80,0.00,24.19,26.62,30.08,14.64,51.45,1027.90,2029.11,1864.06,1899.62,2147.34,600.11,600.48,30.74,0000 0000 0000 0000 000000
2017-03-06 05:22:48,0.24,5.81,0.00,24.22,26.62,30.09,14.52,51.78,1027.84,2029.13,1861.77,1897.97,2145.46,599.91,600.06,30.79,0000 0000 0000 0000 000000
2017-03-06 05:27:49,0.24,5.82,0.00,24.15,26.62,30.07,14.60,51.77,1027.47,2029.09,1859.39,1896.34,2143.53,599.53,599.60,30.84,0000 0000 0000 0000 000000
2017-03-06 05:32:51,0.25,5.83,0.00,24.16,26.62,30.08,14.59,51.66,1027.37,2029.07,1857.07,1894.67,2141.56,599.98,600.02,30.89,0000 0000 0000 0000 000000
2017-03-06 05:37:52,0.31,5.85,0.00,24.20,26.62,30.08,14.59,51.74,1027.36,2029.07,1853.73,1892.99,2139.48,599.74,599.59,30.94,0000 0000 0000 0000 000000
2017-03-06 05:42:53,0.27,5.86,0.00,24.20,26.62,30.09,14.57,51.91,1027.36,2029.14,1851.01,1891.21,2137.39,599.75,599.72,30.99,0000 0000 0000 0000 000000
2017-03-06 05:47:54,0.25,5.87,0.00,24.21,26.62,30.09,14.57,51.86,1027.36,2029.23,1848.64,1889.58,2135.55,599.92,599.75,31.04,0000 0000 0000 0000 000000
2017-03-06 05:52:55,0.25,5.89,0.00,24.18,26.62,30.10,14.63,51.67,1027.40,2029.19,1846.23,1887.87,2133.56,599.66,599.70,31.09,0000 0000 0000 0000 000000
2017-03-06 05:57:57,0.27,5.90,0.00,24.21,26.62,30.09,14.63,51.55,1027.83,2029.18,1843.80,1886.12,2131.62,600.06,600.20,31.14,0000 0000 0000 0000 000000
2017-03-06 06:02:58,0.29,5.92,0.00,24.18,26.62,30.11,14.64,51.36,1027.85,2029.08,1841.10,1884.17,2129.39,599.82,600.05,31.19,0000 0000 0000 0000 000000
2017-03-06 06:07:59,0.26,5.93,0.00,24.17,26.62,30.09,14.62,51.27,1027.86,2029.07,1838.51,1882.31,2127.26,599.96,600.22,31.24,0000 0000 0000 0000 000000
2017-03-06 06:13:01,0.28,5.95,0.00,24.16,26.62,30.08,14.55,51.37,1027.85,2029.08,1836.00,1880.53,2125.22,599.83,600.08,31.29,0000 0000 0000 0000 000000
2017-03-06 06:18:02,0.27,5.96,0.00,24.20,26.62,30.09,14.57,51.25,1027.85,2029.07,1833.49,1878.76,2123.24,600.35,600.56,31.34,0000 0000 0000 0000 000000
2017-03-06 06:23:03,0.29,5.97,0.00,24.19,26.62,30.09,14.59,51.28,1027.79,2029.09,1830.94,1876.89,2121.10,599.78,599.98,31.39,0000 0000 0000 0000 000000
2017-03-06 06:28:04,0.28,5.99,0.00,24.19,26.62,30.08,14.63,51.36,1027.79,2029.11,1828.96,1874.73,2118.83,599.94,599.99,31.44,0000 0000 0000 0000 000000
2017-03-06 06:33:06,0.35,6.00,0.00,24.18,26.62,30.09,14.60,51.37,1027.72,2029.16,1826.06,1872.47,2116.27,600.31,600.32,31.49,0000 0000 0000 0000 000000
2017-03-06 06:38:07,0.29,6.02,0.00,24.19,26.62,30.06,14.69,51.48,1027.58,2029.17,1823.25,1870.50,2114.02,600.40,600.44,31.54,0000 0000 0000 0000 000000
2017-03-06 06:43:08,0.29,6.03,0.00,24.20,26.62,30.06,14.66,51.53,1027.66,2029.06,1820.44,1868.49,2111.74,600.40,600.37,31.59,0000 0000 0000 0000 000000
2017-03-06 06:48:10,0.29,6.05,0.00,24.21,26.62,30.05,14.55,51.40,1027.60,2029.04,1817.68,1866.56,2109.68,599.47,599.49,31.64,0000 0000 0000 0000 000000
2017-03-06 06:53:11,0.31,6.06,0.00,24.23,26.62,30.04,14.55,51.43,1027.73,2029.08,1814.94,1864.60,2107.51,599.58,599.61,31.69,0000 0000 0000 0000 000000
2017-03-06 06:58:12,0.30,6.08,0.00,24.21,26.62,30.04,14.55,51.31,1027.82,2029.05,1812.13,1862.67,2105.26,599.67,599.83,31.75,0000 0000 0000 0000 000000
2017-03-06 07:03:13,0.32,6.09,0.00,24.18,26.62,30.04,14.60,51.22,1027.84,2029.04,1809.29,1860.63,2102.91,600.37,600.58,31.80,0000 0000 0000 0000 000000
2017-03-06 07:08:14,0.29,6.11,0.00,24.19,26.62,30.02,14.70,51.28,1027.51,2029.03,1806.52,1858.58,2100.60,600.14,600.06,31.85,0000 0000 0000 0000 000000
2017-03-06 07:13:15,0.30,6.13,0.00,24.21,26.62,30.02,14.57,51.34,1027.36,2029.03,1803.85,1856.69,2098.42,599.84,599.86,31.90,0000 0000 0000 0000 000000
2017-03-06 07:18:16,0.26,6.14,0.00,24.20,26.62,30.01,14.54,51.32,1027.09,2029.05,1801.39,1855.03,2096.41,600.03,599.69,31.95,0000 0000 0000 0000 000000
2017-03-06 07:23:18,0.27,6.15,0.00,24.21,26.62,30.00,14.63,51.49,1027.20,2029.07,1798.87,1853.42,2094.44,600.18,599.87,32.00,0000 0000 0000 0000 000000
2017-03-06 07:28:19,0.29,6.17,0.00,24.23,26.61,30.01,14.57,51.29,1027.31,2029.05,1796.31,1851.63,2092.37,599.89,599.65,32.05,0000 0000 0000 0000 000000
2017-03-06 07:33:20,0.28,6.18,0.00,24.22,26.62,30.00,14.51,51.35,1027.32,2029.08,1793.80,1849.82,2090.34,599.52,599.33,32.10,0000 0000 0000 0000 000000
2017-03-06 07:38:21,0.26,6.20,0.00,24.22,26.60,30.00,14.60,51.20,1027.36,2029.08,1791.28,1848.07,2088.30,600.29,600.15,32.15,0000 0000 0000 0000 000000
2017-03-06 07:43:22,0.28,6.21,0.00,24.23,26.60,29.99,14.59,51.33,1027.38,2029.08,1788.82,1846.28,2086.27,600.16,600.02,32.20,0000 0000 0000 0000 000000
2017-03-06 07:48:23,0.27,6.22,0.00,24.23,26.60,29.98,14.63,51.17,1027.35,2029.07,1786.40,1844.60,2084.33,600.08,599.93,32.25,0000 0000 0000 0000 000000
2017-03-06 07:53:25,0.30,6.24,0.00,24.21,26.60,29.97,14.53,51.37,1027.23,2029.05,1783.82,1842.70,2082.17,599.85,599.78,32.30,0000 0000 0000 0000 000000
2017-03-06 07:58:26,0.32,6.25,0.00,24.24,26.60,29.98,14.62,51.53,1027.36,2029.05,1781.06,1840.69,2079.89,599.95,599.68,32.35,0000 0000 0000 0000 000000
2017-03-06 08:03:27,0.27,6.27,0.00,24.25,26.60,29.98,14.57,51.27,1027.36,2029.07,1778.49,1838.85,2077.72,599.73,599.34,32.40,0000 0000 0000 0000 000000
2017-03-06 08:08:28,0.28,6.28,0.00,24.24,26.60,29.97,14.63,51.35,1027.31,2029.05,1776.04,1837.06,2075.65,600.18,599.90,32.45,0000 0000 0000 0000 000000
2017-03-06 08:13:29,0.28,6.30,0.00,24.24,26.59,29.96,14.58,51.38,1026.92,2029.07,1773.45,1835.27,2073.63,600.37,599.94,32.50,0000 0000 0000 0000 000000
2017-03-06 08:18:30,0.29,6.31,0.00,24.27,26.58,29.96,14.57,51.32,1027.01,2029.07,1771.00,1833.49,2071.61,599.89,599.46,32.55,0000 0000 0000 0000 000000
2017-03-06 08:23:32,0.28,6.33,0.00,24.27,26.57,29.95,14.60,51.21,1027.35,2029.04,1768.44,1831.67,2069.49,600.40,600.10,32.60,0000 0000 0000 0000 000000
2017-03-06 08:28:33,0.29,6.34,0.00,24.27,26.57,29.93,14.61,51.19,1027.37,2029.06,1765.99,1829.89,2067.46,600.07,599.83,32.65,0000 0000 0000 0000 000000
2017-03-06 08:33:34,0.28,6.36,0.00,24.27,26.57,29.93,14.60,51.23,1027.36,2029.06,1763.48,1828.04,2065.41,600.16,599.95,32.70,0000 0000 0000 0000 000000
2017-03-06 08:38:35,0.29,6.37,0.00,24.27,26.57,29.93,14.63,51.30,1027.36,2029.09,1760.96,1826.29,2063.34,600.23,600.10,32.75,0000 0000 0000 0000 000000
2017-03-06 08:43:37,0.29,6.38,0.00,24.29,26.57,29.93,14.58,51.29,1027.35,2029.07,1758.38,1824.44,2061.21,599.91,599.64,32.80,0000 0000 0000 0000 000000
2017-03-06 08:48:38,0.30,6.40,0.00,24.29,26.57,29.92,14.58,51.33,1027.36,2029.05,1755.85,1822.62,2059.17,599.95,599.60,32.85,0000 0000 0000 0000 000000
2017-03-06 08:53:39,0.29,6.41,0.00,24.28,26.57,29.93,14.65,51.57,1027.35,2029.07,1753.27,1820.77,2057.06,600.30,600.08,32.90,0000 0000 0000 0000 000000
2017-03-06 08:58:40,0.37,6.43,0.00,24.31,26.57,29.93,14.60,51.50,1027.31,2029.03,1750.42,1818.43,2054.53,599.99,599.56,32.95,0000 0000 0000 0000 000000
2017-03-06 09:03:42,0.32,6.45,0.00,24.28,26.57,29.92,14.54,51.47,1027.29,2029.02,1747.57,1816.23,2052.05,599.90,599.50,33.01,0000 0000 0000 0000 000000
2017-03-06 09:08:43,0.30,6.46,0.00,24.28,26.56,29.91,14.57,51.55,1027.32,2029.01,1744.98,1814.37,2049.91,600.01,599.72,33.06,0000 0000 0000 0000 000000
2017-03-06 09:13:44,0.29,6.48,0.00,24.30,26.55,29.92,14.51,51.51,1026.99,2029.02,1742.37,1812.54,2047.83,599.28,598.77,33.11,0000 0000 0000 0000 000000
2017-03-06 09:18:46,0.31,6.50,0.00,24.31,26.55,29.92,14.64,51.50,1026.91,2029.03,1739.60,1810.62,2045.91,600.33,599.78,33.16,0000 0000 0000 0000 000000
2017-03-06 09:23:47,0.32,6.51,0.00,24.29,26.55,29.92,14.59,51.52,1026.87,2029.05,1736.79,1808.62,2043.60,599.91,599.24,33.21,0000 0000 0000 0000 000000
2017-03-06 09:28:48,0.30,6.53,0.00,24.29,26.55,29.92,14.67,51.48,1026.90,2029.03,1734.16,1806.75,2041.45,600.34,599.75,33.26,0000 0000 0000 0000 000000
2017-03-06 09:33:49,0.29,6.55,0.00,24.28,26.55,29.91,14.57,51.44,1026.90,2029.03,1731.49,1804.98,2039.35,600.27,599.70,33.31,0000 0000 0000 0000 000000
2017-03-06 09:38:51,0.31,6.56,0.00,24.27,26.55,29.91,14.55,51.43,1026.88,2029.03,1728.93,1803.06,2037.17,599.95,599.41,33.36,0000 0000 0000 0000 000000
2017-03-06 09:43:52,0.31,6.58,0.00,24.33,26.55,29.91,14.53,51.32,1026.87,2029.02,1726.40,1801.07,2034.96,599.79,599.23,33.41,0000 0000 0000 0000 000000
2017-03-06 09:48:53,0.31,6.59,0.00,24.31,26.56,29.90,14.49,51.39,1026.79,2029.01,1723.78,1799.15,2032.71,600.12,599.45,33.46,0000 0000 0000 0000 000000
2017-03-06 09:53:54,0.32,6.61,0.00,24.29,26.56,29.90,14.47,51.27,1026.52,2029.01,1721.10,1797.21,2030.50,599.39,598.60,33.51,0000 0000 0000 0000 000000
2017-03-06 09:58:55,0.31,6.63,0.00,24.29,26.56,29.91,14.56,51.46,1026.42,2029.01,1718.30,1795.29,2028.27,599.71,598.87,33.56,0000 0000 0000 0000 000000
2017-03-06 10:03:57,0.31,6.64,0.00,24.31,26.56,29.91,14.57,51.32,1026.39,2029.01,1715.65,1793.38,2026.08,600.05,599.22,33.61,0000 0000 0000 0000 000000
2017-03-06 10:08:58,0.30,6.66,0.00,24.29,26.56,29.91,14.56,51.39,1026.38,2029.01,1713.05,1791.64,2023.96,600.24,599.39,33.66,0000 0000 0000 0000 000000
2017-03-06 10:13:59,0.31,6.67,0.00,24.30,26.56,29.92,14.52,51.37,1026.38,2029.01,1710.40,1789.81,2021.84,600.19,599.36,33.71,0000 0000 0000 0000 000000
2017-03-06 10:19:01,0.32,6.69,0.00,24.31,26.56,29.91,14.63,51.42,1026.38,2029.01,1707.70,1787.82,2019.59,600.21,599.39,33.76,0000 0000 0000 0000 000000
2017-03-06 10:24:02,0.34,6.70,0.00,24.29,26.57,29.91,14.56,51.39,1026.30,2029.00,1704.86,1785.82,2017.29,599.76,598.91,33.81,0000 0000 0000 0000 000000
2017-03-06 10:29:03,0.35,6.72,0.00,24.27,26.56,29.91,14.56,51.52,1026.06,2029.00,1701.91,1783.74,2014.94,599.69,598.65,33.86,0000 0000 0000 0000 000000
2017-03-06 10:34:05,0.31,6.74,0.00,24.30,26.56,29.92,14.54,51.35,1026.01,2029.01,1699.20,1781.88,2012.71,599.96,598.96,33.91,0000 0000 0000 0000 000000
2017-03-06 10:39:06,0.34,6.76,0.00,24.33,26.56,29.91,14.46,51.47,1026.02,2029.00,1696.38,1779.95,2010.41,600.09,599.04,33.97,0000 0000 0000 0000 000000
2017-03-06 10:44:08,0.36,6.77,0.00,24.33,26.57,29.91,14.59,51.52,1025.98,2029.00,1693.34,1777.79,2007.97,599.92,598.76,34.02,0000 0000 0000 0000 000000
2017-03-06 10:49:09,0.35,6.79,0.00,24.31,26.56,29.91,14.59,51.42,1025.91,2029.00,1690.41,1775.68,2005.57,600.49,599.25,34.07,0000 0000 0000 0000 000000
2017-03-06 10:54:10,0.35,6.81,0.00,24.31,26.57,29.92,14.52,51.46,1025.90,2029.02,1687.51,1773.67,2003.24,599.72,598.59,34.12,0000 0000 0000 0000 000000
2017-03-06 10:59:11,0.32,6.83,0.00,24.29,26.57,29.91,14.55,51.58,1025.87,2029.02,1684.78,1771.74,2001.06,599.72,598.61,34.17,0000 0000 0000 0000 000000
2017-03-06 11:04:13,0.34,6.84,0.00,24.30,26.57,29.91,14.50,51.49,1025.65,2029.01,1681.89,1769.72,1998.70,600.03,598.70,34.22,0000 0000 0000 0000 000000
2017-03-06 11:09:13,0.34,6.86,0.00,24.32,26.57,29.92,14.55,51.35,1025.48,2029.01,1679.05,1767.76,1996.47,600.04,598.59,34.27,0000 0000 0000 0000 000000
2017-03-06 11:14:15,0.35,6.88,0.00,24.34,26.57,29.92,14.57,51.60,1025.42,2029.01,1676.14,1765.85,1994.16,599.75,598.23,34.32,0000 0000 0000 0000 000000
2017-03-06 11:19:16,0.34,6.90,0.00,24.35,26.57,29.92,14.59,51.77,1025.17,2029.00,1673.26,1763.81,1991.82,600.25,598.65,34.37,0000 0000 0000 0000 000000
2017-03-06 11:24:17,0.37,6.92,0.00,24.34,26.57,29.92,14.52,51.83,1024.95,2029.00,1670.18,1761.54,1989.32,600.04,598.28,34.42,0000 0000 0000 0000 000000
2017-03-06 11:29:18,0.37,6.93,0.00,24.32,26.57,29.91,14.52,51.62,1024.94,2029.00,1667.18,1759.37,1986.79,600.10,598.36,34.47,0000 0000 0000 0000 000000
2017-03-06 11:34:19,0.34,6.95,0.00,24.31,26.57,29.93,14.55,51.70,1025.03,2029.00,1664.38,1757.24,1984.42,599.69,598.06,34.52,0000 0000 0000 0000 000000
2017-03-06 11:39:20,0.32,6.97,0.00,24.28,26.57,29.93,14.56,51.48,1024.96,2029.00,1661.70,1755.25,1982.30,599.68,598.02,34.57,0000 0000 0000 0000 000000
2017-03-06 11:44:22,0.44,6.99,0.00,24.29,26.57,29.92,14.52,51.42,1024.94,2029.00,1658.61,1752.69,1979.39,600.16,598.47,34.62,0000 0000 0000 0000 000000
2017-03-06 11:49:23,0.35,7.01,0.00,24.29,26.57,29.92,14.57,51.45,1025.17,2029.00,1655.88,1750.51,1976.95,599.92,598.36,34.67,0000 0000 0000 0000 000000
2017-03-06 11:54:24,0.35,7.03,0.00,24.27,26.57,29.93,14.57,51.48,1025.22,2029.00,1652.99,1748.47,1974.56,600.15,598.66,34.72,0000 0000 0000 0000 000000
2017-03-06 11:59:26,0.32,7.04,0.00,24.26,26.57,29.92,14.53,51.35,1025.02,2029.00,1650.32,1746.59,1972.37,599.99,598.40,34.77,0000 0000 0000 0000 000000
2017-03-06 12:04:27,0.35,7.06,0.00,24.30,26.57,29.92,14.58,51.46,1025.25,2029.00,1647.65,1744.58,1970.08,599.78,598.22,34.82,0000 0000 0000 0000 000000
2017-03-06 12:09:28,0.34,7.08,0.00,24.30,26.57,29.90,14.56,51.53,1025.18,2029.00,1644.98,1742.61,1967.93,600.10,598.50,34.87,0000 0000 0000 0000 000000
2017-03-06 12:14:29,0.36,7.10,0.00,24.27,26.57,29.90,14.49,51.45,1025.12,2028.99,1642.08,1740.52,1965.49,599.96,598.40,34.92,0000 0000 0000 0000 000000
2017-03-06 12:19:30,0.30,7.11,0.00,24.30,26.57,29.89,14.57,51.49,1025.06,2028.99,1639.48,1738.75,1963.48,600.19,598.58,34.97,0000 0000 0000 0000 000000
2017-03-06 12:24:32,0.37,7.13,0.00,24.28,26.57,29.89,14.52,51.52,1025.02,2028.99,1636.79,1736.80,1961.26,599.79,598.20,35.03,0000 0000 0000 0000 000000
2017-03-06 12:29:33,0.44,7.15,0.00,24.29,26.57,29.88,14.58,51.62,1025.19,2028.99,1633.18,1733.81,1957.94,599.89,598.40,35.08,0000 0000 0000 0000 000000
2017-03-06 12:34:34,1.96,7.23,0.00,24.31,26.57,29.90,14.61,51.75,1025.13,2028.99,1621.09,1722.65,1945.23,600.22,598.57,35.13,0000 0000 0000 0000 000000
2017-03-06 12:39:35,0.39,7.27,0.00,24.30,26.57,29.91,14.59,51.58,1025.38,2028.99,1617.35,1719.75,1941.90,600.06,598.72,35.18,0000 0000 0000 0000 000000
2017-03-06 12:44:37,0.33,7.29,0.00,24.30,26.57,29.90,14.53,51.83,1024.99,2028.99,1614.79,1717.89,1939.74,599.86,598.09,35.23,0000 0000 0000 0000 000000
2017-03-06 12:49:38,0.40,7.31,0.00,24.30,26.57,29.89,14.67,52.12,1024.53,2028.99,1611.92,1715.56,1937.19,600.25,598.20,35.28,0000 0000 0000 0000 000000
2017-03-06 12:54:39,0.35,7.33,0.00,24.30,26.57,29.89,14.57,51.92,1024.47,2028.99,1609.06,1713.62,1934.81,600.02,598.03,35.33,0000 0000 0000 0000 000000